Miscellaneous Local Product
Issued by NWS Hastings, NE

Home | Current Version | Previous Version | Graphics & Text | Print | Product List | Glossary On
Versions: 1 2 3 4 5 6 7 8 9 10 11 12 13 14 15 16 17 18 19 20 21 22 23 24 25 26 27 28 29 30 31 32 33 34 35 36 37 38 39 40 41 42 43 44 45 46 47 48 49 50
000
AXUS43 KGID 202102
MISGRI

GID CWA HOURLY WEATHER ROUNDUP
NATIONAL WEATHER SERVICE HASTINGS NE
400 PM CDT MON OCT 20 2014

NOTE: "FAIR" INDICATES FEW OR NO CLOUDS BELOW 12,000 FEET WITH NO
SIGNIFICANT WEATHER AND/OR OBSTRUCTIONS TO VISIBILITY.

...SOUTH CENTRAL NEBRASKA...

CITY           SKY/WX    TMP DP  RH WIND       PRES   REMARKS
GRAND ISLAND   SUNNY     75  39  27 CALM      30.08F
HASTINGS       SUNNY     73  37  27 SE3       30.07F
KEARNEY        SUNNY     73  43  33 E5        30.08F
ORD            SUNNY     73  40  30 CALM      30.05F
YORK           SUNNY     72  39  30 NW7       30.06F
AURORA         SUNNY     74  35  23 NE3       30.07F
LEXINGTON      SUNNY     78  41  26 SE8       30.06F
HOLDREGE       SUNNY     75  38  25 CALM      30.07S
HEBRON         SUNNY     74  35  23 CALM      30.06F

...NEBRASKA PANHANDLE...

CITY           SKY/WX    TMP DP  RH WIND       PRES   REMARKS
CHADRON        SUNNY     80  43  26 S18       29.95F
ALLIANCE       SUNNY     76  37  24 S20G25    30.02F
SCOTTSBLUFF    SUNNY     80  51  36 S18G24    30.00F
SIDNEY         SUNNY     77  36  22 S16       30.06F

...WESTERN AND NORTH CENTRAL NEBRASKA...

CITY           SKY/WX    TMP DP  RH WIND       PRES   REMARKS
VALENTINE      SUNNY     78  38  23 S15       30.02F
AINSWORTH      SUNNY     75  38  27 S7        30.04F
ONEILL         SUNNY     73  41  32 SW3       30.06F
BROKEN BOW     SUNNY     76  44  32 S8        30.07F
IMPERIAL       SUNNY     76  39  26 S14G22    30.07F
NORTH PLATTE   SUNNY     77  40  26 S12       30.05F
MCCOOK         SUNNY     79  40  24 SE6       30.07F

...EASTERN NEBRASKA...

CITY           SKY/WX    TMP DP  RH WIND       PRES   REMARKS
NORFOLK        SUNNY     72  34  24 VRB6      30.05F
SO SIOUX CITY  SUNNY     72  40  31 N9        30.04F
TEKAMAH        SUNNY     74  37  26 NW9       30.03F
COLUMBUS       SUNNY     72  32  23 CALM      30.07F
ALBION         SUNNY     72  36  26 CALM      30.06F
OMAHA EPPLEY   SUNNY     73  39  29 VRB6      30.04F
OFFUTT AFB     SUNNY     71  39  31 CALM      30.04F
MILLARD        SUNNY     71  39  31 NW3       30.04S
LINCOLN        SUNNY     74  37  26 N6        30.06F
NEBRASKA CITY  SUNNY     71  27  19 N3        30.04S
BEATRICE       SUNNY     73  40  29 NW8       30.06S
FALLS CITY     SUNNY     75  36  24 NW8       30.03F

...NORTHERN KANSAS...

CITY           SKY/WX    TMP DP  RH WIND       PRES   REMARKS
GOODLAND       SUNNY     75  41  29 S13G23    30.11F
HILL CITY      SUNNY     80  39  23 E7        30.07F
NORTON         CLEAR     79  28  15 SE3       30.06
PHILLIPSBURG   SUNNY     81  39  22 E3        30.06S
BELOIT         SUNNY     77  43  29 CALM      30.04S
HAYS           SUNNY     77  45  31 E7        30.06F
RUSSELL        SUNNY     78  45  30 SE5       30.05S
CONCORDIA      SUNNY     77  43  29 CALM      30.05F
SALINA         SUNNY     78  46  32 E7        30.04F
TOPEKA         SUNNY     76  46  34 N9        30.03F



USA.gov is the U.S. government's official web portal to all federal, state and local government web resources and services.